FW7647 Weather Reports


Display with metric or nautical units.
time (UTC)temp
F
wind
direction
speed
MPH
gust
MPH
rain 1hr
in
rain 24hr
in
rain mn
in
humidity
%
barometer
mb
20260510035204 69 237 0.0 2.0 0.00 0.03 0.03 94 1014.2
20260510034659 69 236 0.0 2.0 0.00 0.03 0.03 94 1013.8
20260510034157 69 241 0.0 2.0 0.00 0.03 0.03 94 1014.2
20260510033653 69 241 0.0 2.0 0.00 0.03 0.03 94 1013.8
20260510033151 69 241 0.0 2.0 0.00 0.03 0.03 94 1013.5
20260510032647 69 241 0.0 2.0 0.00 0.03 0.03 94 1013.8
20260510032143 69 241 0.0 3.0 0.00 0.03 0.03 94 1013.8
20260510031637 69 241 1.0 3.0 0.00 0.03 0.03 94 1013.8
20260510031134 69 230 1.0 2.0 0.00 0.03 0.03 93 1013.8
20260510030629 69 229 0.0 1.0 0.00 0.03 0.03 93 1013.5
20260510030127 69 229 0.0 1.0 0.00 0.03 0.03 93 1013.8
20260510025624 69 246 1.0 1.0 0.00 0.03 0.03 93 1013.2
20260510025121 69 246 0.0 1.0 0.00 0.03 0.03 93 1013.2
20260510024618 69 246 0.0 1.0 0.00 0.03 0.03 93 1013.5
20260510024114 69 246 0.0 2.0 0.00 0.03 0.03 93 1013.5
20260510023610 69 247 1.0 1.0 0.00 0.03 0.03 93 1013.5
20260510023108 69 247 0.0 2.0 0.00 0.03 0.03 93 1013.5
20260510022608 69 247 1.0 2.0 0.00 0.03 0.03 93 1013.5
20260510022102 69 242 0.0 2.0 0.00 0.03 0.03 93 1013.5
20260510021558 69 242 0.0 5.0 0.00 0.03 0.03 93 1013.2
20260510021056 69 248 0.0 5.0 0.00 0.03 0.03 93 1013.5
20260510020550 69 228 0.0 2.0 0.00 0.03 0.03 93 1013.5
20260510020046 69 228 0.0 2.0 0.00 0.03 0.03 93 1013.5
20260510015542 69 228 1.0 2.0 0.00 0.03 0.03 93 1013.2
20260510015038 69 243 0.0 3.0 0.00 0.03 0.03 93 1013.5
20260510014535 69 244 0.0 3.0 0.00 0.03 0.03 93 1013.2
20260510014032 69 241 0.0 2.0 0.00 0.03 0.03 93 1013.2
20260510013526 69 241 0.0 3.0 0.00 0.03 0.03 93 1013.2
20260510013022 69 240 1.0 3.0 0.00 0.03 0.03 93 1013.5
20260510012516 69 231 0.0 5.0 0.00 0.03 0.03 93 1013.5
20260510012013 69 237 0.0 5.0 0.00 0.03 0.03 93 1013.5
20260510011507 70 228 2.0 2.0 0.00 0.03 0.03 93 1013.5
20260510011003 69 205 0.0 2.0 0.00 0.03 0.03 93 1013.2
20260510010500 69 192 0.0 3.0 0.00 0.03 0.03 92 1013.2
20260510005957 69 192 0.0 3.0 0.00 0.03 0.03 92 1013.2
20260510005453 70 227 1.0 2.0 0.00 0.03 0.03 92 1013.2
20260510004951 69 227 0.0 1.0 0.00 0.03 0.03 92 1013.2
20260510004448 70 227 0.0 1.0 0.00 0.03 0.03 92 1012.8
20260510003946 70 228 1.0 2.0 0.00 0.03 0.03 92 1013.2
20260510003442 70 228 0.0 2.0 0.00 0.03 0.03 92 1013.2
20260510002943 70 203 1.0 2.0 0.00 0.03 0.03 92 1012.8
20260510002439 70 202 0.0 3.0 0.00 0.03 0.03 92 1012.8
20260510001936 70 202 0.0 3.0 0.00 0.03 0.03 92 1012.8
20260510001433 70 203 1.0 3.0 0.00 0.03 0.03 91 1012.8
20260510000931 70 203 1.0 2.0 0.00 0.03 0.03 91 1012.8
20260510000427 70 189 0.0 2.0 0.00 0.03 0.03 91 1012.5
20260509235923 70 189 0.0 1.0 0.00 0.03 0.03 91 1012.8
20260509235420 70 189 0.0 2.0 0.00 0.03 0.03 91 1012.2
20260509234916 70 189 0.0 5.0 0.00 0.03 0.03 91 1012.2
20260509234413 70 189 1.0 5.0 0.00 0.03 0.03 91 1012.2
20260509233911 70 188 3.0 3.0 0.00 0.03 0.03 91 1012.2
20260509233409 70 244 1.0 3.0 0.00 0.03 0.03 90 1012.2
20260509232904 70 220 1.0 1.0 0.00 0.03 0.03 90 1012.2
20260509232403 70 220 0.0 1.0 0.00 0.03 0.03 90 1012.2
20260509231858 70 220 0.0 3.0 0.00 0.03 0.03 90 1012.2
20260509231355 71 220 2.0 3.0 0.00 0.03 0.03 90 1012.2
20260509230853 71 220 0.0 1.0 0.00 0.03 0.03 90 1012.5
20260509230350 71 220 0.0 1.0 0.00 0.02 0.02 90 1012.5
20260509225845 71 220 0.0 1.0 0.00 0.02 0.02 90 1012.2
20260509225342 71 220 0.0 1.0 0.00 0.02 0.02 90 1012.2
20260509224838 71 220 0.0 2.0 0.00 0.02 0.02 90 1012.2
20260509224334 71 220 0.0 2.0 0.00 0.02 0.02 89 1012.2
20260509223831 71 218 0.0 3.0 0.00 0.02 0.02 89 1012.5
20260509223328 71 233 2.0 3.0 0.00 0.02 0.02 89 1012.5
20260509222825 71 239 0.0 2.0 0.00 0.02 0.02 89 1012.2
20260509222320 71 238 0.0 3.0 0.00 0.02 0.02 89 1012.2
20260509221816 71 286 1.0 3.0 0.01 0.02 0.02 89 1012.2
20260509221313 71 284 0.0 1.0 0.01 0.02 0.02 89 1012.2
20260509220808 71 283 0.0 1.0 0.01 0.02 0.02 89 1012.2
20260509220305 71 284 0.0 1.0 0.01 0.02 0.02 88 1011.8
20260509215800 71 283 0.0 2.0 0.01 0.02 0.02 88 1011.8
20260509215257 71 284 0.0 2.0 0.01 0.02 0.02 88 1012.2
20260509214754 71 242 1.0 2.0 0.01 0.02 0.02 88 1012.5
20260509214251 71 305 1.0 3.0 0.01 0.02 0.02 88 1012.2
20260509213748 71 335 2.0 3.0 0.01 0.02 0.02 88 1012.5
20260509213243 71 295 3.0 3.0 0.01 0.02 0.02 87 1012.5
20260509212741 71 329 3.0 6.0 0.01 0.02 0.02 87 1012.5
20260509212239 71 311 3.0 7.0 0.01 0.02 0.02 87 1012.5
20260509211734 72 333 5.0 7.0 0.00 0.01 0.01 87 1012.5
20260509211230 72 242 0.0 5.0 0.00 0.01 0.01 86 1012.8
20260509210727 72 311 3.0 8.0 0.00 0.01 0.01 86 1012.5
20260509210225 72 338 4.0 8.0 0.00 0.01 0.01 86 1012.5
20260509205724 72 295 2.0 7.0 0.00 0.01 0.01 86 1012.5
20260509205224 72 304 2.0 7.0 0.00 0.01 0.01 86 1012.5
20260509204720 73 327 0.0 5.0 0.00 0.01 0.01 86 1012.5
20260509204217 72 307 1.0 5.0 0.00 0.01 0.01 86 1012.5
20260509203713 72 18 1.0 5.0 0.00 0.01 0.01 86 1012.5
20260509203211 72 301 4.0 7.0 0.00 0.01 0.01 86 1012.5
20260509202706 72 326 5.0 7.0 0.00 0.01 0.01 86 1012.5
20260509202201 72 273 1.0 7.0 0.00 0.01 0.01 86 1012.5
20260509201657 73 274 0.0 7.0 0.00 0.01 0.01 86 1012.5
20260509201154 72 299 2.0 7.0 0.00 0.01 0.01 86 1012.2
20260509200650 72 237 1.0 7.0 0.00 0.01 0.01 86 1012.5
20260509200145 72 301 1.0 6.0 0.00 0.01 0.01 86 1012.2
20260509195642 72 259 2.0 6.0 0.00 0.01 0.01 85 1012.2
20260509195137 72 304 3.0 8.0 0.00 0.01 0.01 85 1012.2
20260509194631 72 281 1.0 11.0 0.00 0.01 0.01 84 1011.8
20260509194128 72 209 3.0 11.0 0.00 0.01 0.01 84 1011.5
20260509193624 73 209 6.0 8.0 0.00 0.01 0.01 84 1011.5
20260509193120 73 193 3.0 10.0 0.00 0.01 0.01 83 1012.2
20260509192617 73 161 2.0 13.0 0.00 0.01 0.01 83 1012.2
20260509192112 73 173 8.0 13.0 0.00 0.01 0.01 82 1011.8
20260509191606 73 202 6.0 10.0 0.00 0.01 0.01 81 1011.8
20260509191103 73 200 5.0 7.0 0.00 0.01 0.01 81 1011.8
20260509190600 73 231 3.0 5.0 0.01 0.01 0.01 80 1012.2
20260509190057 73 213 4.0 5.0 0.01 0.01 0.01 80 1012.2
20260509185555 73 322 0.0 9.0 0.01 0.01 0.01 80 1012.5
20260509185050 74 255 4.0 9.0 0.01 0.01 0.01 80 1012.5
20260509184549 74 216 0.0 5.0 0.01 0.01 0.01 80 1012.8
20260509184045 74 138 1.0 7.0 0.01 0.01 0.01 79 1012.8
20260509183541 74 121 1.0 7.0 0.01 0.01 0.01 79 1012.8
20260509183037 74 174 3.0 7.0 0.01 0.01 0.01 79 1012.8
20260509182533 74 155 1.0 7.0 0.00 0.01 0.01 78 1012.8
20260509182031 74 282 1.0 8.0 0.00 0.01 0.01 77 1013.2
20260509181529 74 283 3.0 8.0 0.00 0.01 0.01 76 1013.2
20260509181026 75 280 0.0 11.0 0.00 0.01 0.01 76 1013.2
20260509180521 76 284 1.0 11.0 0.00 0.00 0.00 75 1013.2
20260509180020 76 315 1.0 5.0 0.00 0.00 0.00 74 1013.2
20260509175520 76 7 1.0 9.0 0.00 0.00 0.00 73 1013.2
20260509175017 77 169 1.0 9.0 0.00 0.00 0.00 73 1013.2
20260509174513 77 285 3.0 7.0 0.00 0.00 0.00 74 1012.8
20260509174008 77 269 3.0 6.0 0.00 0.00 0.00 75 1012.8
20260509173503 78 161 2.0 7.0 0.00 0.00 0.00 76 1012.8
20260509172959 78 272 2.0 7.0 0.00 0.00 0.00 76 1012.8
20260509172457 77 297 5.0 7.0 0.00 0.00 0.00 75 1012.8
20260509171952 78 305 3.0 6.0 0.00 0.00 0.00 76 1012.8
20260509171449 78 275 1.0 6.0 0.00 0.00 0.00 76 1013.2
20260509170945 77 265 1.0 3.0 0.00 0.00 0.00 75 1012.8
20260509170440 78 258 1.0 8.0 0.00 0.00 0.00 76 1012.8
20260509165936 78 345 1.0 8.0 0.00 0.00 0.00 76 1012.8
20260509165430 77 116 1.0 7.0 0.00 0.00 0.00 76 1013.2
20260509164926 77 312 2.0 8.0 0.00 0.00 0.00 76 1012.8
20260509164422 78 268 6.0 8.0 0.00 0.00 0.00 76 1013.2
20260509163918 78 339 1.0 7.0 0.00 0.00 0.00 76 1013.2
20260509163416 78 277 0.0 7.0 0.00 0.00 0.00 77 1013.2
20260509162915 78 289 1.0 5.0 0.00 0.00 0.00 77 1013.2
20260509162414 78 102 1.0 8.0 0.00 0.00 0.00 77 1013.2
20260509161909 78 107 1.0 8.0 0.00 0.00 0.00 76 1013.2
20260509161406 78 294 1.0 8.0 0.00 0.00 0.00 75 1013.2
20260509160901 79 275 2.0 8.0 0.00 0.00 0.00 75 1013.2
20260509160357 79 292 1.0 6.0 0.00 0.00 0.00 76 1013.2
20260509155852 78 282 3.0 5.0 0.00 0.00 0.00 77 1013.2
20260509155349 78 296 2.0 6.0 0.00 0.00 0.00 77 1013.2
20260509154846 78 134 3.0 6.0 0.00 0.00 0.00 77 1013.2
20260509154342 78 272 1.0 8.0 0.00 0.00 0.00 79 1013.2
20260509153839 78 285 3.0 8.0 0.00 0.00 0.00 79 1013.5
20260509153336 77 253 3.0 7.0 0.00 0.00 0.00 80 1013.5
20260509152833 77 272 3.0 5.0 0.00 0.00 0.00 80 1013.5
20260509152329 77 284 3.0 6.0 0.00 0.00 0.00 80 1013.5
20260509151827 77 331 0.0 6.0 0.00 0.00 0.00 81 1013.5
20260509151322 76 126 2.0 8.0 0.00 0.00 0.00 82 1013.5
20260509150821 76 191 4.0 8.0 0.00 0.00 0.00 82 1013.5
20260509150318 76 166 3.0 7.0 0.00 0.00 0.00 84 1013.5
20260509145815 76 192 2.0 5.0 0.00 0.00 0.00 84 1013.5
20260509145315 75 192 2.0 3.0 0.00 0.00 0.00 85 1013.8
20260509144812 75 184 1.0 2.0 0.00 0.00 0.00 86 1013.5
20260509144309 75 210 0.0 2.0 0.00 0.00 0.00 86 1013.8
20260509143806 75 197 1.0 3.0 0.00 0.00 0.00 87 1013.8
20260509143304 75 223 3.0 3.0 0.00 0.00 0.00 88 1013.8
20260509142759 74 226 3.0 3.0 0.00 0.00 0.00 89 1013.5
20260509142256 74 198 1.0 2.0 0.00 0.00 0.00 89 1013.5
20260509141751 74 197 0.0 3.0 0.00 0.00 0.00 90 1013.8
20260509141249 73 197 0.0 6.0 0.00 0.00 0.00 90 1013.8
20260509140745 73 190 1.0 6.0 0.00 0.00 0.00 91 1013.8
20260509140242 73 191 1.0 3.0 0.00 0.00 0.00 91 1013.8
20260509135740 73 186 1.0 3.0 0.00 0.00 0.00 92 1013.5
20260509135238 73 201 1.0 3.0 0.00 0.00 0.00 92 1013.5
20260509134734 73 204 1.0 2.0 0.00 0.00 0.00 92 1013.5
20260509134232 73 198 0.0 2.0 0.00 0.00 0.00 92 1013.5
20260509133729 73 198 0.0 1.0 0.00 0.00 0.00 93 1013.5
20260509133225 73 199 1.0 1.0 0.00 0.00 0.00 93 1013.5
20260509132724 73 199 0.0 1.0 0.00 0.00 0.00 93 1013.5
20260509132222 73 199 0.0 2.0 0.00 0.00 0.00 93 1013.5
20260509131718 73 199 1.0 2.0 0.00 0.00 0.00 93 1013.5
20260509131215 73 199 0.0 3.0 0.00 0.00 0.00 93 1013.5
20260509130711 73 199 0.0 3.0 0.00 0.00 0.00 93 1013.5
20260509130207 73 184 3.0 3.0 0.00 0.00 0.00 93 1013.5
20260509125704 73 193 2.0 3.0 0.00 0.00 0.00 93 1013.5
20260509125201 72 223 3.0 3.0 0.00 0.00 0.00 93 1013.5
20260509124657 72 211 1.0 3.0 0.00 0.00 0.00 94 1013.5
20260509124154 72 211 0.0 3.0 0.00 0.00 0.00 94 1013.5
20260509123652 72 200 0.0 6.0 0.00 0.00 0.00 94 1013.5
20260509123149 72 185 4.0 8.0 0.00 0.00 0.00 94 1013.2
20260509122644 72 190 3.0 9.0 0.00 0.00 0.00 93 1013.2
20260509122142 73 200 4.0 9.0 0.00 0.00 0.00 94 1012.8
20260509121638 73 194 7.0 8.0 0.00 0.00 0.00 94 1012.8
20260509121136 72 188 3.0 7.0 0.00 0.00 0.00 94 1013.2
20260509120634 72 189 3.0 5.0 0.00 0.00 0.00 95 1012.8
20260509120132 71 188 2.0 3.0 0.00 0.00 0.00 95 1013.2
20260509115629 70 203 2.0 3.0 0.00 0.00 0.00 95 1013.2
20260509115127 70 222 1.0 1.0 0.00 0.00 0.00 95 1013.2
20260509114624 69 222 0.0 1.0 0.00 0.00 0.00 95 1013.2
20260509114123 69 222 0.0 0.0 0.00 0.00 0.00 95 1013.2
20260509113621 69 222 0.0 0.0 0.00 0.00 0.00 95 1013.2
20260509113118 68 222 0.0 0.0 0.00 0.00 0.00 95 1013.2
20260509112614 68 222 0.0 0.0 0.00 0.00 0.00 95 1013.2
20260509112112 67 222 0.0 1.0 0.00 0.00 0.00 95 1012.8
20260509111609 67 222 0.0 1.0 0.00 0.00 0.00 95 1012.8
20260509111106 67 222 0.0 1.0 0.00 0.00 0.00 95 1012.8
20260509110603 67 222 1.0 1.0 0.00 0.00 0.00 95 1012.5
20260509110100 67 222 1.0 1.0 0.00 0.00 0.00 95 1012.5
20260509105558 67 222 0.0 0.0 0.00 0.00 0.00 95 1012.5
20260509105055 67 222 0.0 0.0 0.00 0.00 0.00 95 1012.5
20260509104552 67 222 0.0 0.0 0.00 0.00 0.00 95 1012.5
20260509104049 67 222 0.0 2.0 0.00 0.00 0.00 95 1012.2
20260509103547 68 222 0.0 2.0 0.00 0.00 0.00 95 1012.2
20260509103045 68 222 1.0 1.0 0.00 0.00 0.00 95 1012.2
20260509102542 68 222 0.0 1.0 0.00 0.00 0.00 95 1012.2
20260509102039 68 222 0.0 1.0 0.00 0.00 0.00 95 1012.2
20260509101535 67 222 0.0 1.0 0.00 0.00 0.00 95 1012.2
20260509101032 67 222 1.0 1.0 0.00 0.00 0.00 95 1012.2
20260509100529 67 222 0.0 1.0 0.00 0.00 0.00 95 1012.2
20260509100026 67 222 1.0 2.0 0.00 0.00 0.00 95 1011.8
20260509095523 68 222 0.0 3.0 0.00 0.00 0.00 95 1011.8
20260509095020 68 222 2.0 3.0 0.00 0.00 0.00 95 1012.2
20260509094516 68 192 2.0 5.0 0.00 0.00 0.00 95 1011.8
20260509094014 68 191 1.0 6.0 0.00 0.00 0.00 95 1011.8
20260509093512 68 182 5.0 5.0 0.00 0.00 0.00 95 1011.5
20260509093009 68 187 3.0 5.0 0.00 0.00 0.00 95 1011.8
20260509092507 68 179 2.0 6.0 0.00 0.00 0.00 95 1011.5
20260509092006 68 178 2.0 6.0 0.00 0.00 0.00 95 1011.5
20260509091502 68 188 2.0 5.0 0.00 0.00 0.00 95 1012.2
20260509090959 68 188 3.0 5.0 0.00 0.00 0.00 95 1012.2
20260509090456 68 217 2.0 2.0 0.00 0.00 0.00 95 1012.2
20260509085954 68 218 0.0 3.0 0.00 0.00 0.00 95 1012.2
20260509085450 68 218 1.0 3.0 0.00 0.00 0.00 95 1012.2
20260509084947 68 218 2.0 2.0 0.00 0.00 0.00 95 1012.2
20260509084444 68 218 0.0 2.0 0.00 0.00 0.00 95 1012.5
20260509083941 68 219 1.0 2.0 0.00 0.00 0.00 95 1012.5
20260509083438 68 216 0.0 7.0 0.00 0.00 0.00 95 1012.2
20260509082929 68 218 1.0 7.0 0.00 0.00 0.00 95 1012.2
20260509082426 68 186 4.0 6.0 0.00 0.00 0.00 94 1012.2
20260509081923 68 199 4.0 6.0 0.00 0.00 0.00 94 1011.8
20260509081421 67 53 2.0 3.0 0.00 0.00 0.00 94 1012.2
20260509080918 67 49 1.0 1.0 0.00 0.00 0.00 94 1012.2
20260509080416 67 49 0.0 0.0 0.00 0.00 0.00 94 1012.5
20260509075914 67 49 0.0 1.0 0.00 0.00 0.00 94 1012.5
20260509075410 68 49 0.0 1.0 0.00 0.00 0.00 94 1012.5
20260509074908 68 49 1.0 1.0 0.00 0.00 0.00 94 1012.5
20260509074406 68 49 0.0 1.0 0.00 0.00 0.00 94 1012.2
20260509073901 68 49 0.0 2.0 0.00 0.00 0.00 94 1012.8
20260509073358 68 50 2.0 2.0 0.00 0.00 0.00 94 1012.8
20260509072854 68 51 0.0 1.0 0.00 0.00 0.00 94 1012.8
20260509072351 68 51 0.0 1.0 0.00 0.00 0.00 94 1013.2
20260509071848 68 51 0.0 1.0 0.00 0.00 0.00 94 1012.8
20260509071345 68 51 1.0 1.0 0.00 0.00 0.00 94 1012.8
20260509070842 68 52 1.0 1.0 0.00 0.00 0.00 94 1012.8
20260509070339 68 52 0.0 2.0 0.00 0.00 0.00 94 1012.8
20260509065835 68 53 1.0 2.0 0.00 0.00 0.00 94 1013.2
20260509065331 68 31 1.0 3.0 0.00 0.00 0.00 94 1012.5
20260509064827 68 30 1.0 5.0 0.00 0.00 0.00 94 1012.5
20260509064325 68 30 2.0 5.0 0.00 0.00 0.00 94 1012.8
20260509063822 68 19 3.0 6.0 0.00 0.00 0.00 94 1012.8
20260509063318 68 3 3.0 6.0 0.00 0.00 0.00 94 1013.2
20260509062816 68 83 0.0 2.0 0.00 0.00 0.00 94 1013.5
20260509062313 68 84 1.0 2.0 0.00 0.00 0.00 94 1013.2
20260509061810 68 84 1.0 2.0 0.00 0.00 0.00 94 1013.5
20260509061308 68 86 2.0 2.0 0.00 0.00 0.00 94 1013.5
20260509060805 68 83 0.0 2.0 0.00 0.00 0.00 93 1013.8
20260509060301 68 82 1.0 5.0 0.00 0.00 0.00 93 1013.5
20260509055757 68 82 1.0 9.0 0.00 0.00 0.00 93 1013.2
20260509055253 68 64 1.0 10.0 0.00 0.00 0.00 93 1012.8
20260509054750 68 120 5.0 10.0 0.00 0.00 0.00 93 1012.8
20260509054247 68 112 5.0 9.0 0.00 0.00 0.00 93 1013.2
20260509053745 68 114 7.0 9.0 0.00 0.00 0.00 93 1013.2
20260509053241 68 90 4.0 7.0 0.00 0.00 0.00 93 1013.2
20260509052740 68 75 2.0 7.0 0.00 0.00 0.00 93 1013.2
20260509052237 68 80 3.0 6.0 0.00 0.00 0.00 93 1013.2
20260509051734 68 78 3.0 5.0 0.00 0.00 0.00 93 1013.8
20260509051232 68 68 2.0 5.0 0.00 0.00 0.00 93 1013.5
20260509050729 68 61 2.0 5.0 0.00 0.00 0.00 93 1013.5
20260509050226 68 49 2.0 3.0 0.00 0.00 0.00 93 1013.2
20260509045723 67 30 2.0 2.0 0.00 0.00 0.00 93 1013.8
20260509045219 67 30 0.0 2.0 0.00 0.00 0.00 93 1014.2
20260509044717 67 29 0.0 2.0 0.00 0.00 0.00 93 1013.8
20260509044214 67 29 0.0 1.0 0.00 0.00 0.00 93 1013.8
20260509043710 67 29 0.0 1.0 0.00 0.00 0.00 93 1014.2
20260509043206 67 29 0.0 1.0 0.00 0.00 0.00 93 1014.2
20260509042703 68 30 0.0 3.0 0.00 0.00 0.00 93 1014.2
20260509042159 68 64 0.0 7.0 0.00 0.00 0.00 93 1014.5
20260509041656 68 107 4.0 7.0 0.00 0.00 0.00 92 1014.5
20260509041153 68 82 4.0 7.0 0.00 0.00 0.00 92 1014.2
20260509040652 67 38 0.0 9.0 0.00 0.00 0.00 92 1014.5
20260509040148 67 120 5.0 9.0 0.01 0.00 0.00 92 1014.2